Weather History for KDET - February, 2014

Change the Weather History Date:

Wednesday, February 26, 2014

  Actual Average Record
Temperature  
Mean Temperature 12 °F -  
Max Temperature 16 °F 36 °F 140 °F (1998)
Min Temperature 8 °F 22 °F -1 °F (1963)
Degree Days  
Heating Degree Days 53    
Moisture  
Dew Point -1 °F    
Average Humidity 54    
Maximum Humidity 64    
Minimum Humidity 43    
Precipitation  
Precipitation 0.00 in - - ()
Sea Level Pressure  
Sea Level Pressure 29.97 in    
Wind  
Wind Speed 11 mph (West)    
Max Wind Speed 22 mph    
Max Gust Speed 31 mph    
Visibility 10 miles    
Events      
Averages and records for this station are not official NWS values.
T = Trace of Precipitation, MM = Missing Value Source: NWS Daily Summary

Daily Weather History Graph

Daily Weather History Graph

Search for Another Location

Airport or City:

Trip Planner

Search our weather history database for the weather conditions in past years. The results will help you decide how hot, cold, wet, or windy it might be!

Date:

Astronomy

Feb. 26, 2014 Rise Set
Actual Time 7:12 AM EST 6:18 PM EST
Civil Twilight 6:43 AM EST 6:46 PM EST
Nautical Twilight 6:11 AM EST 7:19 PM EST
Astronomical Twilight 5:38 AM EST 7:51 PM EST
Moon 5:00 AM EST (2/26) 3:29 PM EST (2/26)
Length of Visible Light 12h 02m
Length of Day
11h 05m
Waning Crescent, 10% of the Moon is Illuminated
Feb 26
Waning Crescent
Mar 1
New
Mar 8
First Quarter
Mar 16
Full
Mar 23
Last Quarter

Hourly Weather History & Observations

Time (EST) Temp. Windchill Dew Point Humidity Pressure Visibility Wind Dir Wind Speed Gust Speed Precip Events Conditions
12:53 AM 14.0 °F -0.8 °F -0.9 °F 52% 30.04 in 10.0 mi NW 13.8 mph 24.2 mph 0.00 in   Partly Cloudy
1:53 AM 12.9 °F 1.6 °F -2.0 °F 51% 30.05 in 10.0 mi WNW 8.1 mph 17.3 mph N/A   Clear
2:53 AM 12.0 °F 0.5 °F -0.9 °F 56% 30.05 in 10.0 mi WNW 8.1 mph - N/A   Clear
3:53 AM 10.9 °F -0.8 °F -0.9 °F 59% 30.05 in 10.0 mi WNW 8.1 mph - N/A   Scattered Clouds
4:53 AM 10.9 °F 2.9 °F 1.0 °F 64% 30.07 in 10.0 mi WNW 4.6 mph - N/A   Overcast
5:53 AM 9.0 °F -2.2 °F -2.0 °F 61% 30.10 in 10.0 mi North 6.9 mph - 0.00 in   Overcast
6:00 AM 8.6 °F 0.1 °F -2.2 °F 62% 30.06 in 10.0 mi NNW 4.6 mph - N/A   Overcast
6:18 AM 8.6 °F 2.0 °F -2.2 °F 62% 30.07 in 10.0 mi NW 3.5 mph - N/A   Scattered Clouds
6:53 AM 8.1 °F 1.4 °F -2.9 °F 61% 30.11 in 10.0 mi West 3.5 mph - N/A   Clear
7:53 AM 8.1 °F -2.0 °F -2.0 °F 64% 30.13 in 10.0 mi West 5.8 mph - N/A   Clear
8:53 AM 10.0 °F -0.9 °F -2.0 °F 58% 30.13 in 10.0 mi WNW 6.9 mph 17.3 mph N/A   Clear
9:53 AM 10.9 °F -3.4 °F -2.9 °F 54% 30.14 in 10.0 mi West 11.5 mph - N/A   Partly Cloudy
10:53 AM 12.0 °F -2.0 °F -5.1 °F 46% 30.12 in 10.0 mi West 11.5 mph 17.3 mph N/A   Mostly Cloudy
11:53 AM 12.9 °F 0.7 °F -4.0 °F 47% 30.09 in 10.0 mi West 9.2 mph - N/A   Partly Cloudy
12:53 PM 15.1 °F -0.6 °F -4.0 °F 43% 30.05 in 10.0 mi West 16.1 mph 21.9 mph N/A   Partly Cloudy
1:53 PM 16.0 °F 1.1 °F -2.0 °F 45% 30.00 in 10.0 mi WSW 15.0 mph - N/A   Partly Cloudy
2:53 PM 16.0 °F 0.1 °F -0.0 °F 49% 29.96 in 10.0 mi WSW 17.3 mph 25.3 mph N/A   Mostly Cloudy
3:53 PM 16.0 °F 0.6 °F -0.0 °F 49% 29.92 in 10.0 mi SW 16.1 mph 24.2 mph N/A   Mostly Cloudy
4:53 PM 16.0 °F -0.9 °F 1.0 °F 52% 29.89 in 10.0 mi SW 19.6 mph 26.5 mph N/A   Scattered Clouds
5:53 PM 15.1 °F -1.1 °F 1.0 °F 54% 29.82 in 10.0 mi SW 17.3 mph - N/A   Mostly Cloudy
6:53 PM 14.0 °F -2.0 °F -0.9 °F 52% 29.83 in 10.0 mi SW 16.1 mph 26.5 mph N/A   Scattered Clouds
7:53 PM 12.9 °F -2.8 °F -0.9 °F 54% 29.81 in 10.0 mi SW 15.0 mph 26.5 mph N/A   Clear
8:53 PM 14.0 °F -4.3 °F -0.9 °F 52% 29.71 in 10.0 mi SW 21.9 mph 31.1 mph N/A   Mostly Cloudy
9:53 PM 14.0 °F -3.0 °F -0.9 °F 52% 29.72 in 10.0 mi WSW 18.4 mph 28.8 mph N/A   Scattered Clouds
10:53 PM 14.0 °F -3.4 °F -0.0 °F 54% 29.72 in 10.0 mi WSW 19.6 mph 27.6 mph N/A   Scattered Clouds
11:53 PM 12.9 °F -3.9 °F 1.0 °F 59% 29.67 in 10.0 mi SW 17.3 mph 25.3 mph N/A   Mostly Cloudy